DW4379 Weather Reports


Display with metric or nautical units.
time (UTC)temp
F
wind
direction
speed
MPH
gust
MPH
rain 1hr
in
rain 24hr
in
rain mn
in
humidity
%
barometer
mb
20260906021004 84 3 2.0 8.0 0.00 0.00 0.00 74 1011.6
20260906020504 84 354 2.0 5.0 0.00 0.00 0.00 75 1011.5
20260906020003 85 350 2.0 7.0 0.00 0.00 0.00 75 1011.4
20260906015503 85 353 2.0 7.0 0.00 0.00 0.00 75 1011.4
20260906015004 85 356 3.0 7.0 0.00 0.00 0.00 75 1011.4
20260906014718 85 360 3.0 8.0 0.00 0.00 0.00 75 1011.4
20260906014003 85 10 4.0 9.0 0.00 0.00 0.00 75 1011.2
20260906013504 86 359 3.0 9.0 0.00 0.00 0.00 75 1011.2
20260906013219 86 2 3.0 9.0 0.00 0.00 0.00 75 1011.1
20260906012503 86 11 3.0 8.0 0.00 0.00 0.00 75 1010.8
20260906012004 87 2 2.0 7.0 0.00 0.00 0.00 74 1010.7
20260906011503 87 359 3.0 11.0 0.00 0.00 0.00 74 1010.7
20260906011219 87 357 4.0 11.0 0.00 0.00 0.00 75 1010.6
20260906010504 88 360 4.0 14.0 0.00 0.00 0.00 75 1010.6
20260906010219 88 2 3.0 14.0 0.00 0.00 0.00 75 1010.7
20260906005504 89 357 2.0 8.0 0.00 0.00 0.00 73 1010.5
20260906005003 90 357 2.0 8.0 0.00 0.00 0.00 72 1010.4
20260906004503 90 5 0.0 3.0 0.00 0.00 0.00 71 1010.3
20260906004218 90 0 0.0 0.0 0.00 0.00 0.00 72 1010.2
20260906003503 90 347 1.0 5.0 0.00 0.00 0.00 71 1010.2
20260906003004 90 346 1.0 5.0 0.00 0.00 0.00 70 1010.1
20260906002504 91 354 1.0 7.0 0.00 0.00 0.00 71 1010.1
20260906002003 91 355 2.0 7.0 0.00 0.00 0.00 70 1010.2
20260906001503 91 353 1.0 5.0 0.00 0.00 0.00 70 1010.2
20260906001004 91 338 0.0 1.0 0.00 0.00 0.00 70 1010.2
20260906000504 92 343 0.0 1.0 0.00 0.00 0.00 69 1010.2
20260906000004 92 349 0.0 3.0 0.00 0.00 0.00 69 1010.3
20260905235504 92 347 0.0 3.0 0.00 0.00 0.00 68 1010.2
20260905235218 92 348 0.0 2.0 0.00 0.00 0.00 68 1010.2
20260905234503 92 341 0.0 2.0 0.00 0.00 0.00 67 1010.1
20260905234003 93 332 0.0 2.0 0.00 0.00 0.00 66 1010.0
20260905233503 93 337 1.0 3.0 0.00 0.00 0.00 66 1009.9
20260905233218 93 338 1.0 3.0 0.00 0.00 0.00 66 1010.0
20260905232504 93 325 0.0 3.0 0.00 0.00 0.00 65 1009.9
20260905232003 94 311 0.0 2.0 0.00 0.00 0.00 65 1009.9
20260905231503 94 301 0.0 1.0 0.00 0.00 0.00 64 1009.9
20260905231003 94 329 0.0 3.0 0.00 0.00 0.00 63 1010.0
20260905230503 94 330 1.0 3.0 0.00 0.00 0.00 63 1009.9
20260905230004 94 326 1.0 2.0 0.00 0.00 0.00 62 1010.0
20260905225503 95 338 1.0 2.0 0.00 0.00 0.00 62 1009.9
20260905225004 95 348 1.0 7.0 0.00 0.00 0.00 61 1009.8
20260905224503 95 348 2.0 7.0 0.00 0.00 0.00 61 1009.8
20260905224003 95 348 2.0 6.0 0.00 0.00 0.00 61 1009.8
20260905223719 95 345 2.0 6.0 0.00 0.00 0.00 60 1009.8
20260905223003 95 334 1.0 4.0 0.00 0.00 0.00 59 1009.9
20260905222503 95 340 2.0 5.0 0.00 0.00 0.00 59 1009.8
20260905222004 96 338 1.0 5.0 0.00 0.00 0.00 58 1009.8
20260905221504 96 322 1.0 3.0 0.00 0.00 0.00 58 1009.8
20260905221003 96 330 1.0 4.0 0.00 0.00 0.00 57 1009.8
20260905220504 96 345 1.0 8.0 0.00 0.00 0.00 58 1009.8
20260905220217 96 341 1.0 8.0 0.00 0.00 0.00 57 1009.8
20260905215718 96 344 1.0 6.0 0.00 0.00 0.00 59 1009.8
20260905215004 96 346 1.0 6.0 0.00 0.00 0.00 57 1009.8
20260905214718 96 332 1.0 3.0 0.00 0.00 0.00 57 1009.9
20260905214004 96 333 1.0 5.0 0.00 0.00 0.00 57 1010.0
20260905213503 96 329 1.0 5.0 0.00 0.00 0.00 56 1010.0
20260905213004 96 321 1.0 3.0 0.00 0.00 0.00 57 1009.9
20260905212503 96 311 1.0 2.0 0.00 0.00 0.00 57 1009.9
20260905212003 96 311 1.0 2.0 0.00 0.00 0.00 57 1009.8
20260905211504 96 336 1.0 4.0 0.00 0.00 0.00 57 1009.9
20260905211003 97 338 1.0 4.0 0.00 0.00 0.00 56 1009.9
20260905210503 96 326 0.0 3.0 0.00 0.00 0.00 57 1010.0
20260905210004 96 312 0.0 2.0 0.00 0.00 0.00 58 1010.1
20260905205718 96 328 1.0 4.0 0.00 0.00 0.00 57 1010.1
20260905205003 96 336 1.0 7.0 0.00 0.00 0.00 58 1010.1
20260905204503 96 313 1.0 4.0 0.00 0.00 0.00 57 1010.2
20260905204003 97 306 1.0 2.0 0.00 0.00 0.00 57 1010.3
20260905203503 97 302 1.0 2.0 0.00 0.00 0.00 56 1010.3
20260905203003 98 315 1.0 3.0 0.00 0.00 0.00 54 1010.3
20260905202503 97 319 1.0 3.0 0.00 0.00 0.00 53 1010.3
20260905202004 97 311 1.0 2.0 0.00 0.00 0.00 52 1010.4
20260905201503 97 308 1.0 2.0 0.00 0.00 0.00 52 1010.5
20260905201003 97 306 1.0 3.0 0.00 0.00 0.00 53 1010.6
20260905200503 97 309 1.0 3.0 0.00 0.00 0.00 54 1010.6
20260905200004 98 310 1.0 2.0 0.00 0.00 0.00 53 1010.7
20260905195503 98 312 1.0 2.0 0.00 0.00 0.00 53 1010.6
20260905195218 97 316 1.0 3.0 0.00 0.00 0.00 53 1010.7
20260905194504 97 320 0.0 3.0 0.00 0.00 0.00 54 1010.6
20260905194004 97 325 1.0 5.0 0.00 0.00 0.00 56 1010.6
20260905193503 97 333 1.0 5.0 0.00 0.00 0.00 55 1010.6
20260905193004 98 329 1.0 5.0 0.00 0.00 0.00 55 1010.8
20260905192717 98 313 1.0 3.0 0.00 0.00 0.00 55 1010.8
20260905192003 97 318 1.0 2.0 0.00 0.00 0.00 58 1010.8
20260905191504 97 346 1.0 5.0 0.00 0.00 0.00 58 1010.8
20260905191004 97 333 1.0 5.0 0.00 0.00 0.00 58 1010.7
20260905190504 97 300 1.0 4.0 0.00 0.00 0.00 59 1010.9
20260905190004 98 286 0.0 4.0 0.00 0.00 0.00 57 1010.9
20260905185503 98 272 0.0 2.0 0.00 0.00 0.00 58 1010.9
20260905185218 98 273 1.0 2.0 0.00 0.00 0.00 58 1011.1
20260905184503 97 319 0.0 3.0 0.00 0.00 0.00 58 1011.1
20260905184003 97 321 0.0 3.0 0.00 0.00 0.00 59 1011.2
20260905183503 97 276 0.0 2.0 0.00 0.00 0.00 58 1011.3
20260905183003 97 275 0.0 2.0 0.00 0.00 0.00 58 1011.4
20260905182717 96 276 1.0 2.0 0.00 0.00 0.00 58 1011.4
20260905182003 96 311 1.0 3.0 0.00 0.00 0.00 58 1011.5
20260905181504 96 319 0.0 2.0 0.00 0.00 0.00 59 1011.7
20260905181004 96 98 0.0 2.0 0.00 0.00 0.00 61 1011.8
20260905180504 95 71 1.0 3.0 0.00 0.00 0.00 62 1011.7
20260905180004 94 44 2.0 5.0 0.00 0.00 0.00 62 1011.8
20260905175717 94 33 2.0 5.0 0.00 0.00 0.00 63 1011.9
20260905175004 95 339 0.0 3.0 0.00 0.00 0.00 62 1011.9
20260905174503 95 138 0.0 2.0 0.00 0.00 0.00 62 1011.9
20260905174003 94 181 0.0 2.0 0.00 0.00 0.00 63 1011.9
20260905173503 94 227 0.0 2.0 0.00 0.00 0.00 62 1012.0
20260905173004 94 235 0.0 2.0 0.00 0.00 0.00 62 1012.0
20260905172503 94 103 0.0 2.0 0.00 0.00 0.00 64 1012.0
20260905172218 93 19 0.0 2.0 0.00 0.00 0.00 65 1012.0
20260905171504 93 351 0.0 2.0 0.00 0.00 0.00 65 1012.0
20260905171004 93 218 0.0 2.0 0.00 0.00 0.00 65 1012.2
20260905170504 93 180 1.0 2.0 0.00 0.00 0.00 66 1012.2
20260905170004 92 131 0.0 2.0 0.00 0.00 0.00 66 1012.3
20260905165504 92 225 0.0 2.0 0.00 0.00 0.00 65 1012.3
20260905165003 92 128 1.0 5.0 0.00 0.00 0.00 66 1012.4
20260905164718 92 105 1.0 5.0 0.00 0.00 0.00 68 1012.4
20260905164003 91 118 1.0 4.0 0.00 0.00 0.00 69 1012.3
20260905163504 91 136 1.0 3.0 0.00 0.00 0.00 69 1012.5
20260905163003 91 127 1.0 3.0 0.00 0.00 0.00 69 1012.7
20260905162504 90 117 2.0 4.0 0.00 0.00 0.00 71 1012.6
20260905162217 90 113 2.0 4.0 0.00 0.00 0.00 71 1012.7
20260905161503 90 102 2.0 6.0 0.00 0.00 0.00 71 1012.7
20260905161003 90 107 2.0 6.0 0.00 0.00 0.00 71 1012.7
20260905160504 89 115 1.0 6.0 0.00 0.00 0.00 71 1012.7
20260905160217 89 112 2.0 6.0 0.00 0.00 0.00 72 1012.8
20260905155503 89 123 1.0 4.0 0.00 0.00 0.00 71 1012.6
20260905155003 88 131 1.0 4.0 0.00 0.00 0.00 72 1012.7
20260905154503 88 107 2.0 5.0 0.00 0.00 0.00 74 1012.7
20260905154217 88 102 2.0 5.0 0.00 0.00 0.00 74 1012.6
20260905153503 88 115 2.0 5.0 0.00 0.00 0.00 74 1012.7
20260905153003 88 131 1.0 4.0 0.00 0.00 0.00 74 1012.7
20260905152503 88 90 1.0 4.0 0.00 0.00 0.00 74 1012.9
20260905152004 87 81 1.0 4.0 0.00 0.00 0.00 75 1013.0
20260905151718 87 91 2.0 5.0 0.00 0.00 0.00 75 1013.0
20260905151003 87 97 2.0 5.0 0.00 0.00 0.00 75 1013.0
20260905150504 87 87 2.0 5.0 0.00 0.00 0.00 76 1013.1
20260905150004 87 92 1.0 5.0 0.00 0.00 0.00 78 1013.0
20260905145503 86 95 2.0 5.0 0.00 0.00 0.00 77 1013.0
20260905145004 86 99 2.0 6.0 0.00 0.00 0.00 77 1012.8
20260905144503 86 113 2.0 6.0 0.00 0.00 0.00 77 1012.8
20260905144003 86 116 3.0 8.0 0.00 0.00 0.00 78 1012.8
20260905143503 85 109 3.0 8.0 0.00 0.00 0.00 78 1012.8
20260905143003 85 109 3.0 7.0 0.00 0.00 0.00 79 1012.8
20260905142504 85 109 3.0 7.0 0.00 0.00 0.00 79 1012.9
20260905142004 85 108 3.0 9.0 0.00 0.00 0.00 79 1012.9
20260905141503 85 103 4.0 9.0 0.00 0.00 0.00 80 1013.0
20260905141003 85 87 3.0 9.0 0.00 0.00 0.00 80 1013.1
20260905140503 85 63 2.0 5.0 0.00 0.00 0.00 79 1013.0
20260905140004 84 58 0.0 3.0 0.00 0.00 0.00 81 1012.8
20260905135504 83 215 0.0 1.0 0.00 0.00 0.00 80 1012.7
20260905135218 83 223 0.0 1.0 0.00 0.00 0.00 79 1012.7
20260905134504 83 230 0.0 1.0 0.00 0.00 0.00 82 1012.6
20260905134004 82 0 0.0 0.0 0.00 0.00 0.00 82 1012.5
20260905133503 82 230 0.0 1.0 0.00 0.00 0.00 83 1012.5
20260905133004 81 230 0.0 1.0 0.00 0.00 0.00 84 1012.5
20260905132503 81 230 0.0 1.0 0.00 0.00 0.00 84 1012.5
20260905132218 81 0 0.0 0.0 0.00 0.00 0.00 84 1012.5
20260905131503 80 235 0.0 1.0 0.00 0.00 0.00 85 1012.5
20260905131003 80 235 0.0 1.0 0.00 0.00 0.00 85 1012.4
20260905130503 80 236 0.0 1.0 0.00 0.00 0.00 84 1012.4
20260905130004 80 0 0.0 0.0 0.00 0.00 0.00 86 1012.5
20260905125503 79 0 0.0 0.0 0.00 0.00 0.00 85 1012.6
20260905125004 79 139 0.0 1.0 0.00 0.00 0.00 85 1012.6
20260905124503 79 139 0.0 1.0 0.00 0.00 0.00 86 1012.7
20260905124004 79 0 0.0 0.0 0.00 0.00 0.00 88 1012.7
20260905123504 78 0 0.0 0.0 0.00 0.00 0.00 88 1012.6
20260905123004 78 0 0.0 0.0 0.00 0.00 0.00 89 1012.5
20260905122503 78 0 0.0 0.0 0.00 0.00 0.00 89 1012.4
20260905122003 77 0 0.0 0.0 0.00 0.00 0.00 90 1012.5
20260905121717 77 0 0.0 0.0 0.00 0.00 0.00 90 1012.5
20260905121218 77 0 0.0 0.0 0.00 0.00 0.00 90 1012.5
20260905120504 77 0 0.0 0.0 0.00 0.00 0.00 91 1012.5
20260905120004 77 0 0.0 0.0 0.00 0.00 0.00 91 1012.4
20260905115503 77 0 0.0 0.0 0.00 0.00 0.00 91 1012.5
20260905115004 76 0 0.0 0.0 0.00 0.00 0.00 91 1012.5
20260905114504 76 0 0.0 0.0 0.00 0.00 0.00 91 1012.4
20260905114218 76 0 0.0 0.0 0.00 0.00 0.00 91 1012.4
20260905113504 76 0 0.0 0.0 0.00 0.00 0.00 91 1012.4
20260905113218 76 0 0.0 0.0 0.00 0.00 0.00 91 1012.3
20260905112504 76 0 0.0 0.0 0.00 0.00 0.00 91 1012.4
20260905112003 76 0 0.0 0.0 0.00 0.00 0.00 91 1012.3
20260905111504 76 0 0.0 0.0 0.00 0.00 0.00 90 1012.2
20260905111003 77 0 0.0 0.0 0.00 0.00 0.00 90 1012.3
20260905110504 77 0 0.0 0.0 0.00 0.00 0.00 89 1012.2
20260905110004 77 0 0.0 0.0 0.00 0.00 0.00 89 1012.2
20260905105503 77 0 0.0 0.0 0.00 0.00 0.00 89 1012.1
20260905105003 77 0 0.0 0.0 0.00 0.00 0.00 90 1012.1
20260905104504 77 0 0.0 0.0 0.00 0.00 0.00 90 1012.0
20260905104003 77 0 0.0 0.0 0.00 0.00 0.00 90 1012.0
20260905103503 77 0 0.0 0.0 0.00 0.00 0.00 90 1012.0
20260905103003 77 0 0.0 0.0 0.00 0.00 0.00 89 1012.0
20260905102503 77 0 0.0 0.0 0.00 0.00 0.00 90 1012.1
20260905102003 77 0 0.0 0.0 0.00 0.00 0.00 90 1012.2
20260905101503 77 0 0.0 0.0 0.00 0.00 0.00 90 1012.1
20260905101003 77 0 0.0 0.0 0.00 0.00 0.00 90 1012.1
20260905100504 77 0 0.0 0.0 0.00 0.00 0.00 90 1012.1
20260905100003 77 0 0.0 0.0 0.00 0.00 0.00 91 1012.1
20260905095504 77 0 0.0 0.0 0.00 0.00 0.00 91 1012.0
20260905095217 77 0 0.0 0.0 0.00 0.00 0.00 91 1012.0
20260905094503 77 0 0.0 0.0 0.00 0.00 0.00 92 1012.0
20260905094004 77 0 0.0 0.0 0.00 0.00 0.00 92 1012.0
20260905093718 77 136 0.0 1.0 0.00 0.00 0.00 92 1012.0
20260905093004 77 153 0.0 1.0 0.00 0.00 0.00 92 1012.0
20260905092718 77 155 0.0 1.0 0.00 0.00 0.00 92 1012.0
20260905092003 77 169 0.0 1.0 0.00 0.00 0.00 92 1011.9
20260905091504 77 169 0.0 1.0 0.00 0.00 0.00 92 1011.9
20260905091003 77 17 0.0 1.0 0.00 0.00 0.00 92 1011.8
20260905090504 77 15 0.0 1.0 0.00 0.00 0.00 93 1011.9
20260905090004 77 142 0.0 1.0 0.00 0.00 0.00 93 1011.9
20260905085503 77 161 0.0 1.0 0.00 0.00 0.00 92 1011.9
20260905085003 77 0 0.0 0.0 0.00 0.00 0.00 92 1011.9
20260905084504 77 0 0.0 0.0 0.00 0.00 0.00 92 1011.8
20260905084218 77 0 0.0 0.0 0.00 0.00 0.00 92 1011.8
20260905083504 78 0 0.0 0.0 0.00 0.00 0.00 91 1011.7
20260905083003 78 0 0.0 0.0 0.00 0.00 0.00 91 1011.7
20260905082503 78 0 0.0 0.0 0.00 0.00 0.00 91 1011.7
20260905082003 78 0 0.0 0.0 0.00 0.00 0.00 91 1011.6
20260905081503 78 0 0.0 0.0 0.00 0.00 0.00 91 1011.6
20260905081003 78 0 0.0 0.0 0.00 0.00 0.00 91 1011.6
20260905080503 78 0 0.0 0.0 0.00 0.00 0.00 91 1011.7
20260905080004 78 0 0.0 0.0 0.00 0.00 0.00 91 1011.7
20260905075717 78 0 0.0 0.0 0.00 0.00 0.00 91 1011.5
20260905075003 78 0 0.0 0.0 0.00 0.00 0.00 91 1011.6
20260905074503 78 0 0.0 0.0 0.00 0.00 0.00 90 1011.7
20260905074004 78 0 0.0 0.0 0.00 0.00 0.00 90 1011.7
20260905073503 78 0 0.0 0.0 0.00 0.00 0.00 90 1011.7
20260905073003 78 0 0.0 0.0 0.00 0.00 0.00 91 1011.7
20260905072503 78 0 0.0 0.0 0.00 0.00 0.00 91 1011.8
20260905072003 78 0 0.0 0.0 0.00 0.00 0.00 90 1011.9
20260905071503 78 0 0.0 0.0 0.00 0.00 0.00 90 1011.8
20260905071004 79 0 0.0 0.0 0.00 0.00 0.00 90 1011.8
20260905070717 79 0 0.0 0.0 0.00 0.00 0.00 90 1011.8
20260905070004 79 0 0.0 0.0 0.00 0.00 0.00 90 1011.8
20260905065504 79 0 0.0 0.0 0.00 0.00 0.00 90 1011.7
20260905065003 79 0 0.0 0.0 0.00 0.00 0.00 90 1011.8
20260905064503 79 0 0.0 0.0 0.00 0.00 0.00 90 1011.9
20260905064004 79 0 0.0 0.0 0.00 0.00 0.00 90 1011.9
20260905063504 79 0 0.0 0.0 0.00 0.00 0.00 90 1011.9
20260905063004 79 0 0.0 0.0 0.00 0.00 0.00 90 1012.0
20260905062503 79 0 0.0 0.0 0.00 0.00 0.00 90 1012.0
20260905062003 79 0 0.0 0.0 0.00 0.00 0.00 90 1012.0
20260905061719 79 0 0.0 0.0 0.00 0.00 0.00 90 1012.0
20260905061004 79 0 0.0 0.0 0.00 0.00 0.00 90 1012.1
20260905060503 80 0 0.0 0.0 0.00 0.00 0.00 90 1012.1
20260905060004 80 0 0.0 0.0 0.00 0.00 0.00 90 1012.1
20260905055504 80 0 0.0 0.0 0.00 0.00 0.00 90 1012.1
20260905055004 80 0 0.0 0.0 0.00 0.00 0.00 90 1012.0
20260905054503 80 0 0.0 0.0 0.00 0.00 0.00 90 1012.0
20260905054004 80 0 0.0 0.0 0.00 0.00 0.00 90 1012.1
20260905053503 80 0 0.0 0.0 0.00 0.00 0.00 90 1012.1
20260905053217 80 0 0.0 0.0 0.00 0.00 0.00 90 1012.2
20260905052503 80 0 0.0 0.0 0.00 0.00 0.00 90 1012.3
20260905052003 80 0 0.0 0.0 0.00 0.00 0.00 90 1012.3
20260905051718 80 0 0.0 0.0 0.00 0.00 0.00 90 1012.3
20260905051003 80 0 0.0 0.0 0.00 0.00 0.00 90 1012.2
20260905050503 80 0 0.0 0.0 0.00 0.00 0.00 90 1012.2
20260905050004 80 0 0.0 0.0 0.00 0.00 0.00 90 1012.1
20260905045503 80 0 0.0 0.0 0.00 0.00 0.00 90 1012.3
20260905045003 81 0 0.0 0.0 0.00 0.00 0.00 90 1012.2
20260905044504 81 0 0.0 0.0 0.00 0.00 0.00 90 1012.3
20260905044003 81 0 0.0 0.0 0.00 0.00 0.00 91 1012.4
20260905043503 81 0 0.0 0.0 0.00 0.00 0.00 90 1012.4
20260905043004 81 0 0.0 0.0 0.00 0.00 0.00 90 1012.5
20260905042504 81 0 0.0 0.0 0.00 0.00 0.00 90 1012.4
20260905042003 81 0 0.0 0.0 0.00 0.00 0.00 90 1012.5
20260905041504 81 0 0.0 0.0 0.00 0.00 0.00 90 1012.5
20260905041003 81 0 0.0 0.0 0.00 0.00 0.00 90 1012.5
20260905040504 81 0 0.0 0.0 0.00 0.00 0.00 89 1012.5
20260905040009 81 96 0.0 1.0 0.00 0.00 0.00 89 1012.5
20260905035503 82 97 0.0 1.0 0.00 0.00 0.00 89 1012.5
20260905035003 82 97 0.0 1.0 0.00 0.00 0.00 89 1012.5
20260905034503 82 97 0.0 1.0 0.00 0.00 0.00 89 1012.6
20260905034003 82 0 0.0 0.0 0.00 0.00 0.00 89 1012.7
20260905033503 82 0 0.0 0.0 0.00 0.00 0.00 89 1012.7
20260905033003 82 0 0.0 0.0 0.00 0.00 0.00 88 1012.6
20260905032503 83 0 0.0 0.0 0.00 0.00 0.00 87 1012.6
20260905032218 83 0 0.0 0.0 0.00 0.00 0.00 87 1012.6
20260905031503 83 0 0.0 0.0 0.00 0.00 0.00 87 1012.6
20260905031003 83 0 0.0 0.0 0.00 0.00 0.00 88 1012.7
20260905030717 83 0 0.0 0.0 0.00 0.00 0.00 88 1012.6
20260905030003 83 0 0.0 0.0 0.00 0.00 0.00 88 1012.5
20260905025503 83 0 0.0 0.0 0.00 0.00 0.00 88 1012.5
20260905025218 83 0 0.0 0.0 0.00 0.00 0.00 88 1012.4
20260905024503 83 0 0.0 0.0 0.00 0.00 0.00 86 1012.4
20260905024218 83 0 0.0 0.0 0.00 0.00 0.00 86 1012.4
20260905023503 84 0 0.0 0.0 0.00 0.00 0.00 84 1012.4
20260905023218 84 0 0.0 0.0 0.00 0.00 0.00 84 1012.4
20260905022504 84 0 0.0 0.0 0.00 0.00 0.00 83 1012.2
20260905022003 84 0 0.0 0.0 0.00 0.00 0.00 84 1012.2
20260905021504 85 0 0.0 0.0 0.00 0.00 0.00 84 1012.3
20260905021218 85 0 0.0 0.0 0.00 0.00 0.00 84 1012.3